sat.trackr.live / text

‹ back to catalog

STARLINK-11697 [DTC]

NORAD 63553 · 2025-075F

PAYLOAD ACTIVE UNKNOWN

§ Identity

Operator
Country
US
Launch date
2025-04-13
Launch site
AFETR
Launch vehicle
Mass (kg)
RCS (m²)

Purposes: comms

External: N2YO · Heavens-Above · Gunter

§ Orbital elements

Epoch: 2026-09-20T21:46:16.594464Z

Period
91.67 min
Inclination
42.9996°
Eccentricity
0.0002370
Mean motion
15.70872215 rev/d
Perigee alt
354.8 km
Apogee alt
358.0 km
Semi-major
6,734.5 km
B*
9.3128e-4
RAAN
56.8839°
Arg perigee
271.5403°
Mean anomaly
88.5193°
Rev number
8,395

§ Raw data

STARLINK-11697 [DTC]1 63553U 25075F   26263.90713651  .00120972  00000+0  93128-3 0  99982 63553  42.9996  56.8839 0002370 271.5403  88.5193 15.70872215 83953

JSON: /api/v1/satellites/63553 · /tle

For live sub-satellite position, see the globe view (requires WebGL).

§ Visibility from observer

Set your observer location to see the next 7 days of passes ≥ 10°. The values pass through the URL so the page stays shareable.

No JS? Fill the form by hand. The geolocation button needs JavaScript.